DMSP 5D-2 F13 DEB, 40399

Orbit data source: Space-Track

DMSP 5D-2 F13 DEB, 40399 is space debris in SSO originally from a launch on Fri, 24 Mar 1995 UTC launched from the Air Force Western Test Range (AFWTR). Debris objects in space refer to the collection of defunct objects orbiting the Earth. Examples of debris include non-operational satellites, rocket bodies, and fragments generated from explosions, collisions, or faulty payload assembly.

Loading next visibility...
Identifier
40399, 1995-015L
Orbit
SSO
Country
Flag of USUS
Related business
Manufacturer
Unknown
Mission
Spacecraft
Bus & Motor
Unknown
Mass
Unknown
Launch date (UTC)
1995-03-24 (31 years ago)
Launch vehicle
Unknown
Launch site
Air Force Western Test Range (AFWTR)
Object type
Payload
Rocket body
Debris
Shape & HBR
Unknown shape, 0.1 m
Radar Cross Section
Small (<0.1 m²)

Expand to show TLE details & history
Last TLE update: 20 hours ago

TLE from 20 hours ago
0 DMSP 5D-2 F13 DEB
1 40399U 95015L   25340.54623526  .00006093  00000-0  22960-2 0  9991
2 40399  98.7154   5.2444 0009146 164.9231 195.2226 14.31750662558871
Epoch: 2025-12-06T13:06Z
TLE epoch observation values (Epoch: 2025-12-06T13:06:34.726Z)
Latitude
-0.00004°
Longitude
93.02729°
Altitude
795.139 km
Speed
7.453 km/s
True Right ascension
00h 20m 58s
True Declination
0° 00' 00"
Sunlit
Object was in daylight at epoch
Visualization orbit readout
Latitude
Unknown
Longitude
Unknown
Altitude
Unknown
Speed
Unknown
Apparent Right ascension
Unknown
Apparent Declination
Unknown
Sunlit
N/A
Visualization observer readout
Local Sidereal Time
07:41:33
Azimuth
Unknown
Elevation
Unknown
Doppler factor
Unknown
Orbital elements
Apogee altitude
789.578 km
Perigee altitude
776.479 km
Semi-major axis
7,161.165 km
Eccentricity
0.00091
Inclination
98.7154°
RAAN
5.2444°
Arg. of periapsis
164.9231°
True anomaly
195.19511°
Mean anomaly
195.2226°
Eccentric anomaly
195.20885°
Mean motion
3.58152 °/min
Orbital period
100.52 mins
BSTAR
0.002296
Loading maneuver chart data...
Computing Atmospheric mass density...

Documentation

Showing up to 5 results
|